This is the latest recevied weather packets stored in our database for station/object K4CRS-13. If no packets are shown the sender has not sent any weather packets the latest 10 day(s).
| Time | Temp. | Humidity | Pressure | Rain* | Wind** | Luminosity | Snow |
|---|---|---|---|---|---|---|---|
| 1777749340 | 18.89° C | 37% | 1051.4 hPa | 0 mm | - | 848 W/m² | - |
| 1777749038 | 18.89° C | 34% | 1051.5 hPa | 0 mm | - | 144 W/m² | - |
| 1777748735 | 18.89° C | 36% | 1051.5 hPa | 0 mm | - | 910 W/m² | - |
| 1777748432 | 18.89° C | 39% | 1051.6 hPa | 0 mm | - | 855 W/m² | - |
| 1777748127 | 18.33° C | 40% | 1051.6 hPa | 0 mm | - | 242 W/m² | - |
| 1777747824 | 18.89° C | 36% | 1051.7 hPa | 0 mm | - | 312 W/m² | - |
| 1777747520 | 18.89° C | 38% | 1051.7 hPa | 0 mm | - | 839 W/m² | - |
| 1777747216 | 18.89° C | 37% | 1051.8 hPa | 0 mm | - | 852 W/m² | - |
| 1777746912 | 18.89° C | 37% | 1051.8 hPa | 0 mm | - | 869 W/m² | - |
| 1777746609 | 19.44° C | 42% | 1051.9 hPa | 0 mm | - | 891 W/m² | - |
| 1777746303 | 18.89° C | 44% | 1051.9 hPa | 0 mm | - | 896 W/m² | - |
| 1777746000 | 17.78° C | 39% | 1051.7 hPa | 0 mm | - | 960 W/m² | - |
| 1777745698 | 18.89° C | 39% | 1051.8 hPa | 0 mm | - | 251 W/m² | - |
| 1777745397 | 18.89° C | 39% | 1052 hPa | 0 mm | - | 980 W/m² | - |
| 1777745093 | 18.33° C | 36% | 1051.9 hPa | 0 mm | - | 239 W/m² | - |
| 1777744790 | 18.89° C | 38% | 1052 hPa | 0 mm | - | 232 W/m² | - |
| 1777744489 | 17.78° C | 38% | 1052.2 hPa | 0 mm | - | 909 W/m² | - |
| 1777744186 | 18.89° C | 38% | 1052.2 hPa | 0 mm | - | 951 W/m² | - |
| 1777743884 | 17.78° C | 37% | 1052.3 hPa | 0 mm | - | 214 W/m² | - |
| 1777743580 | 18.33° C | 38% | 1052 hPa | 0 mm | - | 935 W/m² | - |
| 1777743277 | 18.33° C | 38% | 1052.2 hPa | 0 mm | - | 887 W/m² | - |
| 1777742975 | 18.33° C | 40% | 1052.4 hPa | 0 mm | - | 860 W/m² | - |
| 1777742672 | 18.33° C | 37% | 1052.3 hPa | 0 mm | - | 855 W/m² | - |
| 1777742368 | 18.33° C | 38% | 1052.2 hPa | 0 mm | - | 317 W/m² | - |
| 1777742064 | 18.33° C | 37% | 1052.3 hPa | 0 mm | - | 858 W/m² | - |
* Rain latest hour (hover to see other rain measurements)
** Current wind speed in m/s (hover to see current wind gust speed)